DECAYED

STARLINK-30262, 57535 (Decayed)

Orbit data source: Space-Track

STARLINK-30262, 57535 was a payload satellite owned by SpaceX/Seattle (US) in LEO that was launched on Tue, 08 Aug 2023 UTC via an FALCON 9 launch vehicle from the Air Force Western Test Range (AFWTR). Payload-class satellites include a variety of spacecraft equipped with specific instruments for various scientific and technological missions. These include communications satellites like Starlink; space stations such as the ISS; scientific satellites like the Hubble; Earth observation satellites from companies like Planet Labs, Umbra, and HawkEye 360; GPS; miniature CubeSats for education and research; and military/defense satellites.

Not visible in the next 10 days
Identifier
57535, 2023-115Q
Orbit
Decayed
Country
Flag of USUS
Related business
Manufacturer
SpaceX/Seattle
Mission
Decayed Commercial Communications
Bus & Motor
STARLINK V2M, Unknown motor
Mass
730 kg wet, ~700 kg dry
Launch date (UTC)
2023-08-08 (3 years ago)
Launch vehicle
FALCON 9
Launch site
Air Force Western Test Range (AFWTR)
Object type
Payload
Rocket body
Debris
Shape & HBR
Box + 2 Pan, 17.7 m
Radar Cross Section
33.884 m², Large (>1 m²)

Expand to show TLE details & history
Last TLE update: 11 months ago

TLE from 11 months ago
0 STARLINK-30262
1 57535U 23115Q   25204.45895414  .44093982  92364-5  48326-2 0  9993
2 57535  42.9766 343.4976 0005643 281.3965 138.4460 16.36224002111037
Epoch: 2025-07-23T11:00Z
TLE epoch observation values (Epoch: 2025-07-23T11:00:53.637Z)
Latitude
36.27816°
Longitude
-71.60773°
Altitude
180.274 km
Speed
7.802 km/s
True Right ascension
02h 20m 12s
True Declination
36° 05' 59"
Sunlit
Object was in daylight at epoch
Visualization orbit readout
Latitude
Unknown
Longitude
Unknown
Altitude
Unknown
Speed
Unknown
Apparent Right ascension
Unknown
Apparent Declination
Unknown
Sunlit
N/A
Visualization observer readout
Local Sidereal Time
21:27:54
Azimuth
Unknown
Elevation
Unknown
Doppler factor
Unknown
Orbital elements
Apogee altitude
181.606 km
Perigee altitude
174.207 km
Semi-major axis
6,556.044 km
Eccentricity
0.00056
Inclination
42.9766°
RAAN
343.4976°
Arg. of periapsis
281.3965°
True anomaly
138.48887°
Mean anomaly
138.446°
Eccentric anomaly
138.46744°
Mean motion
4.08865 °/min
Orbital period
88.05 mins
BSTAR
0.0048326
Loading maneuver chart data...
Computing Atmospheric mass density...
Loading historical data...
Loading historical data...
Loading historical data...
Loading historical data...
Loading historical data...
Loading historical data...
Loading historical data...

Documentation

Showing up to 5 results
|